When you browse on this site, cookies collect data to enhance your experience and personalize the content and advertising you see.
Visit our Privacy Policy to learn more. By continuing to use the site, you agree to this use of cookies and data.
  • în România
  • Lista ţărilor
  • Pe 7 zile
  • Temperatura apei
  • Hartă satelitară
  • Meteo pe hartă
  • Widget-uri
  • user-avatar
    Intrare

    Meteo pe oră la Pionerskoe

    Astăzi, 19 Iulie, Vineri

    Timp Temperatura Precipitaţii Vânt Presiune Umiditate
    00:00 +20°C° 0 mm 2 m/s 750 mmHg 76%
    01:00 +20°C° 0 mm 2 m/s 751 mmHg 78%
    02:00 +20°C° 0 mm 2 m/s 751 mmHg 79%
    03:00 +19°C° 0 mm 2 m/s 751 mmHg 81%
    04:00 +21°C° 0 mm 1 m/s 751 mmHg 79%
    05:00 +21°C° 0 mm 1 m/s 752 mmHg 76%
    06:00 +22°C° 0 mm 1 m/s 752 mmHg 74%
    07:00 +23°C° 0 mm 1 m/s 752 mmHg 69%
    08:00 +24°C° 0 mm 1 m/s 752 mmHg 63%
    09:00 +25°C° 0 mm 2 m/s 752 mmHg 58%
    10:00 +27°C° 0 mm 2 m/s 752 mmHg 51%
    11:00 +28°C° 0 mm 3 m/s 753 mmHg 44%
    12:00 +30°C° 0 mm 3 m/s 753 mmHg 37%
    13:00 +30°C° 0 mm 3 m/s 753 mmHg 38%
    14:00 +30°C° 0 mm 4 m/s 753 mmHg 38%
    15:00 +30°C° 0 mm 4 m/s 753 mmHg 39%
    16:00 +29°C° 0 mm 3 m/s 753 mmHg 42%
    17:00 +29°C° 0 mm 3 m/s 753 mmHg 46%
    18:00 +28°C° 0 mm 3 m/s 753 mmHg 49%
    19:00 +26°C° 0 mm 3 m/s 753 mmHg 54%
    20:00 +24°C° 0 mm 3 m/s 753 mmHg 60%
    21:00 +21°C° 0 mm 2 m/s 754 mmHg 65%
    22:00 +21°C° 0 mm 2 m/s 754 mmHg 66%
    23:00 +20°C° 0 mm 2 m/s 754 mmHg 67%

    Mâine, 20 Iulie, Sâmbătă

    Timp Temperatura Precipitaţii Vânt Presiune Umiditate
    00:00 +20°C° 0 mm 1 m/s 754 mmHg 69%
    01:00 +20°C° 0 mm 1 m/s 754 mmHg 69%
    02:00 +20°C° 0 mm 1 m/s 754 mmHg 70%
    03:00 +19°C° 0 mm 1 m/s 755 mmHg 71%
    04:00 +20°C° 0 mm 1 m/s 755 mmHg 70%
    05:00 +20°C° 0 mm 2 m/s 755 mmHg 69%
    06:00 +20°C° 0 mm 2 m/s 755 mmHg 69%
    07:00 +22°C° 0 mm 3 m/s 755 mmHg 63%
    08:00 +24°C° 0 mm 3 m/s 755 mmHg 57%
    09:00 +26°C° 0 mm 4 m/s 756 mmHg 51%
    10:00 +27°C° 0 mm 4 m/s 756 mmHg 49%
    11:00 +27°C° 0 mm 5 m/s 756 mmHg 47%
    12:00 +28°C° 0 mm 5 m/s 756 mmHg 45%
    13:00 +28°C° 0 mm 5 m/s 756 mmHg 44%
    14:00 +29°C° 0 mm 5 m/s 756 mmHg 44%
    15:00 +29°C° 0 mm 5 m/s 755 mmHg 43%
    16:00 +28°C° 0 mm 5 m/s 755 mmHg 45%
    17:00 +28°C° 0 mm 5 m/s 756 mmHg 47%
    18:00 +27°C° 0 mm 4 m/s 756 mmHg 50%
    19:00 +25°C° 0 mm 4 m/s 756 mmHg 54%
    20:00 +22°C° 0 mm 3 m/s 756 mmHg 58%
    21:00 +21°C° 0 mm 3 m/s 756 mmHg 63%
    22:00 +20°C° 0 mm 3 m/s 757 mmHg 64%
    23:00 +19°C° 0 mm 2 m/s 757 mmHg 65%

    Poimâine, 21 Iulie, Duminică

    Timp Temperatura Precipitaţii Vânt Presiune Umiditate
    00:00 +19°C° 0 mm 2 m/s 757 mmHg 67%
    01:00 +19°C° 0 mm 2 m/s 757 mmHg 69%
    02:00 +18°C° 0 mm 3 m/s 757 mmHg 71%
    03:00 +18°C° 0 mm 3 m/s 757 mmHg 73%
    04:00 +19°C° 0 mm 3 m/s 757 mmHg 72%
    05:00 +19°C° 0 mm 3 m/s 757 mmHg 72%
    06:00 +20°C° 0 mm 3 m/s 757 mmHg 71%
    07:00 +22°C° 0 mm 4 m/s 757 mmHg 66%
    08:00 +23°C° 0 mm 4 m/s 757 mmHg 61%
    09:00 +26°C° 0 mm 5 m/s 757 mmHg 55%
    10:00 +27°C° 0 mm 5 m/s 757 mmHg 52%
    11:00 +28°C° 0 mm 5 m/s 757 mmHg 48%
    12:00 +29°C° 0 mm 5 m/s 757 mmHg 44%
    13:00 +29°C° 0 mm 6 m/s 756 mmHg 42%
    14:00 +29°C° 0 mm 6 m/s 756 mmHg 41%
    15:00 +29°C° 0 mm 6 m/s 756 mmHg 39%
    16:00 +29°C° 0 mm 5 m/s 756 mmHg 42%
    17:00 +28°C° 0 mm 4 m/s 756 mmHg 45%
    18:00 +28°C° 0 mm 4 m/s 756 mmHg 47%
    19:00 +26°C° 0 mm 3 m/s 756 mmHg 51%
    20:00 +24°C° 0 mm 3 m/s 756 mmHg 56%
    21:00 +21°C° 0 mm 2 m/s 756 mmHg 60%
    22:00 +21°C° 0 mm 2 m/s 756 mmHg 63%
    23:00 +20°C° 0 mm 2 m/s 756 mmHg 66%

    22 Iulie, Luni

    Timp Temperatura Precipitaţii Vânt Presiune Umiditate
    00:00 +20°C° 0 mm 2 m/s 756 mmHg 70%
    01:00 +19°C° 0 mm 2 m/s 756 mmHg 72%
    02:00 +19°C° 0 mm 2 m/s 755 mmHg 75%
    03:00 +18°C° 0 mm 3 m/s 755 mmHg 78%
    04:00 +19°C° 0 mm 3 m/s 755 mmHg 76%
    05:00 +19°C° 0 mm 3 m/s 755 mmHg 75%
    06:00 +20°C° 0 mm 3 m/s 756 mmHg 74%
    07:00 +21°C° 0 mm 4 m/s 755 mmHg 68%
    08:00 +23°C° 0 mm 4 m/s 755 mmHg 61%
    09:00 +26°C° 0 mm 5 m/s 755 mmHg 55%
    10:00 +27°C° 0 mm 5 m/s 755 mmHg 51%
    11:00 +27°C° 0 mm 5 m/s 755 mmHg 47%
    12:00 +28°C° 0 mm 5 m/s 755 mmHg 43%
    13:00 +29°C° 0 mm 5 m/s 755 mmHg 43%
    14:00 +29°C° 0 mm 5 m/s 755 mmHg 43%
    15:00 +29°C° 0 mm 5 m/s 754 mmHg 43%
    16:00 +29°C° 0 mm 4 m/s 754 mmHg 46%
    17:00 +28°C° 0 mm 4 m/s 754 mmHg 49%
    18:00 +27°C° 0 mm 4 m/s 754 mmHg 51%
    19:00 +26°C° 0 mm 3 m/s 754 mmHg 57%
    20:00 +24°C° 0 mm 3 m/s 754 mmHg 63%
    21:00 +21°C° 0 mm 2 m/s 754 mmHg 69%
    22:00 +21°C° 0 mm 2 m/s 754 mmHg 71%
    23:00 +20°C° 0 mm 2 m/s 754 mmHg 73%

    23 Iulie, Marţi

    Timp Temperatura Precipitaţii Vânt Presiune Umiditate
    00:00 +21°C° 0 mm 1 m/s 753 mmHg 75%
    01:00 +20°C° 0 mm 1 m/s 753 mmHg 77%
    02:00 +19°C° 0 mm 2 m/s 753 mmHg 79%
    03:00 +18°C° 0 mm 2 m/s 753 mmHg 80%
    04:00 +19°C° 0 mm 2 m/s 753 mmHg 79%
    05:00 +20°C° 0 mm 2 m/s 753 mmHg 77%
    06:00 +21°C° 0 mm 1 m/s 753 mmHg 76%
    07:00 +23°C° 0 mm 2 m/s 753 mmHg 69%
    08:00 +24°C° 0 mm 2 m/s 753 mmHg 63%
    09:00 +26°C° 0 mm 2 m/s 754 mmHg 56%
    10:00 +27°C° 0 mm 2 m/s 753 mmHg 52%
    11:00 +28°C° 0 mm 3 m/s 753 mmHg 47%
    12:00 +29°C° 0 mm 3 m/s 753 mmHg 42%
    13:00 +29°C° 0 mm 3 m/s 753 mmHg 40%
    14:00 +30°C° 0 mm 3 m/s 753 mmHg 38%
    15:00 +30°C° 0 mm 3 m/s 753 mmHg 36%
    16:00 +30°C° 0 mm 3 m/s 753 mmHg 38%
    17:00 +29°C° 0 mm 2 m/s 753 mmHg 40%
    18:00 +29°C° 0 mm 2 m/s 752 mmHg 43%
    19:00 +27°C° 0 mm 2 m/s 753 mmHg 46%
    20:00 +26°C° 0 mm 3 m/s 753 mmHg 50%
    21:00 +24°C° 0 mm 3 m/s 753 mmHg 53%
    22:00 +22°C° 0 mm 3 m/s 753 mmHg 55%
    23:00 +22°C° 0 mm 3 m/s 753 mmHg 57%

    24 Iulie, Miercuri

    Timp Temperatura Precipitaţii Vânt Presiune Umiditate
    00:00 +21°C° 0 mm 3 m/s 753 mmHg 58%
    01:00 +21°C° 0 mm 3 m/s 753 mmHg 60%
    02:00 +20°C° 0 mm 3 m/s 753 mmHg 62%
    03:00 +20°C° 0 mm 3 m/s 753 mmHg 64%
    04:00 +20°C° 0 mm 3 m/s 753 mmHg 64%
    05:00 +21°C° 0 mm 3 m/s 753 mmHg 64%
    06:00 +21°C° 0 mm 3 m/s 753 mmHg 64%
    07:00 +24°C° 0 mm 3 m/s 754 mmHg 59%
    08:00 +26°C° 0 mm 4 m/s 754 mmHg 53%
    09:00 +28°C° 0 mm 4 m/s 754 mmHg 48%
    10:00 +28°C° 0 mm 3 m/s 754 mmHg 46%
    11:00 +29°C° 0 mm 3 m/s 754 mmHg 44%
    12:00 +30°C° 0 mm 3 m/s 754 mmHg 43%
    13:00 +30°C° 0 mm 3 m/s 753 mmHg 42%
    14:00 +31°C° 0 mm 3 m/s 753 mmHg 41%
    15:00 +31°C° 0 mm 3 m/s 753 mmHg 39%
    16:00 +32°C° 0 mm 4 m/s 753 mmHg 42%
    17:00 +30°C° 0 mm 4 m/s 753 mmHg 44%
    18:00 +30°C° 0 mm 5 m/s 753 mmHg 47%
    19:00 +28°C° 0 mm 5 m/s 753 mmHg 49%
    20:00 +26°C° 0 mm 5 m/s 753 mmHg 50%
    21:00 +25°C° 0 mm 5 m/s 753 mmHg 52%
    22:00 +23°C° 0 mm 5 m/s 753 mmHg 53%
    23:00 +23°C° 0 mm 5 m/s 753 mmHg 54%
    Arată mai mult